Wind_Speed
49 50 51 53 54 55 56 56 56 56 57 56 55 54 55 56 57 57 57 57 57 56 56 57 56 56 56 56 55 55 54 54 53 53 53 53 53 52 51 51 50 49 48
47 48 50 51 52 53 54 56 56 55 55 55 56 56 55 55 56 57 57 57 56 56 56 56 56 56 56 56 56 56 55 55 54 53 54 53 53 53 53 52 52 51 50
45 46 48 50 51 51 52 53 54 55 55 55 55 55 54 54 54 55 56 56 56 56 55 55 55 55 55 55 56 56 56 56 56 55 55 54 54 54 54 53 53 52 51
43 45 47 48 50 51 52 52 52 53 53 54 53 53 54 54 53 53 54 54 54 54 54 54 54 53 53 53 54 55 56 56 56 56 56 55 54 54 54 53 53 52 52
41 43 44 46 47 49 51 51 51 51 52 51 51 51 52 53 52 51 52 53 53 52 52 53 53 53 53 54 54 54 56 56 56 56 56 56 55 54 54 53 53 53 52
40 41 42 43 45 47 49 50 50 49 50 49 49 49 50 51 51 51 50 51 51 52 52 51 52 53 53 53 54 54 55 55 55 55 55 55 54 54 53 53 53 53 53
40 40 41 41 43 45 47 48 48 48 47 47 47 47 47 49 50 50 50 50 49 50 51 51 51 51 52 52 53 54 54 54 54 54 54 55 55 54 54 53 53 53 53
40 41 41 41 42 44 45 45 46 46 46 45 45 45 46 46 48 49 49 49 49 50 50 51 51 50 50 51 52 53 53 53 53 53 54 54 54 53 53 53 53 54 54
40 39 39 40 40 41 42 43 43 44 44 44 44 44 45 46 47 47 48 49 49 49 49 50 50 49 49 50 50 50 51 52 53 53 53 53 53 53 53 53 52 53 53
38 37 38 38 38 38 39 40 41 42 43 43 43 43 44 44 45 45 46 47 47 47 47 47 48 49 49 49 49 49 48 49 50 51 52 52 52 52 52 52 52 52 51
35 35 35 36 36 36 36 37 38 39 40 41 41 41 42 42 43 44 44 44 43 44 44 45 46 47 48 48 48 48 48 48 49 50 51 51 51 51 51 51 50 50 49
33 33 34 34 34 34 35 35 36 37 37 38 38 39 40 40 41 42 42 42 42 42 42 43 44 45 47 47 48 48 47 47 48 49 50 50 50 50 50 49 49 49 48
33 33 32 33 33 33 33 33 34 35 35 36 36 36 37 38 39 41 42 42 42 41 41 42 43 43 45 46 47 47 47 46 47 47 47 48 49 49 49 48 48 48 48
32 32 32 32 32 32 32 32 32 33 34 34 35 35 36 36 37 39 40 41 42 42 41 41 42 43 44 44 45 46 46 46 45 45 46 47 47 47 47 47 47 47 47
31 31 31 31 31 31 31 31 31 31 32 33 34 35 36 36 36 37 38 39 39 39 40 40 41 41 42 42 43 44 44 45 45 45 45 44 45 45 45 45 45 44 45
30 31 31 31 30 31 31 31 31 31 31 31 32 33 34 35 35 35 36 37 37 37 38 38 39 39 40 40 40 41 41 42 42 42 43 43 43 42 42 42 42 43 43
30 30 30 30 30 31 31 31 31 31 31 31 31 31 32 33 34 34 34 35 35 36 36 36 37 37 38 38 39 39 39 40 41 41 41 41 41 41 41 42 42 41 41
28 28 28 29 29 29 29 30 30 31 31 31 31 31 31 31 32 33 34 34 34 34 34 34 35 36 36 36 37 37 38 38 39 40 41 41 41 41 41 41 40 40 40
27 26 27 27 27 27 27 28 28 29 29 30 31 31 32 32 32 32 33 33 32 33 33 32 33 34 35 35 35 36 36 37 38 39 39 39 39 39 39 39 39 39 39
26 26 26 25 25 24 25 25 26 27 27 28 29 30 30 32 32 32 33 32 32 33 32 32 32 32 33 33 34 34 34 35 36 37 37 38 38 38 38 38 38 37 38
25 25 24 24 23 23 23 23 23 24 25 26 27 28 29 30 31 32 32 32 32 33 32 32 32 32 32 32 32 32 32 32 34 35 35 36 36 37 37 37 36 36 36
25 24 23 23 22 22 22 22 21 22 22 23 24 26 27 27 28 29 30 31 31 32 32 32 32 32 31 31 32 32 32 32 32 32 33 33 33 35 36 35 36 35 35
24 24 23 22 22 21 20 20 20 20 20 21 22 23 24 25 26 27 28 29 30 30 31 31 31 31 31 31 31 32 33 32 32 32 32 32 33 33 34 34 34 35 35
24 23 22 22 21 20 20 19 19 19 20 20 21 22 23 24 25 26 27 28 29 30 31 31 31 31 32 32 32 32 33 33 33 33 32 33 33 33 32 32 33 34 34
23 22 21 21 20 19 19 19 18 18 19 19 20 21 21 22 23 24 25 26 27 28 29 30 30 31 31 31 31 31 32 32 32 32 32 32 32 32 32 32 32 32 32
22 21 20 20 19 18 18 17 17 17 17 18 19 19 20 21 22 23 23 24 25 26 27 28 29 29 29 29 29 30 31 31 31 31 31 31 31 31 31 30 31 31 31
Wind_Direction
264 262 261 259 258 258 257 257 257 257 256 255 254 255 254 254 252 252 252 251 251 251 251 251 250 250 250 249 250 250 250 250 250 249 249 249 249 250 252 252 253 255 256
267 264 262 260 258 258 258 257 257 258 257 257 255 254 254 253 252 251 251 251 251 250 250 250 250 250 249 249 249 249 249 249 249 250 249 249 249 250 251 252 254 255 256
269 266 263 261 258 258 259 258 258 257 257 258 256 254 252 252 251 251 250 250 250 250 249 249 249 249 249 249 248 248 248 248 249 249 249 249 249 250 251 252 253 254 256
272 268 265 263 260 259 259 259 258 257 257 257 256 254 252 251 251 250 250 250 249 249 249 249 249 248 248 248 248 248 248 248 249 249 249 249 250 251 251 252 253 254 256
273 271 268 265 263 261 260 260 260 259 259 258 256 254 252 250 250 250 249 248 249 249 248 248 248 247 248 248 248 248 248 248 249 249 249 250 251 251 252 252 253 254 255
275 274 271 268 265 263 261 261 260 260 259 257 256 255 253 250 249 249 248 248 248 247 247 248 248 247 247 248 249 248 248 248 248 249 249 250 251 251 252 252 253 254 256
277 276 273 270 267 265 263 262 260 259 258 256 256 255 254 252 250 250 250 249 248 247 247 247 247 247 247 248 248 248 248 248 248 249 249 250 250 251 251 252 252 254 256
279 277 275 271 269 267 265 263 260 258 257 257 256 255 254 252 251 251 250 249 249 249 248 248 248 247 247 248 248 248 248 247 247 249 250 251 251 251 251 252 253 253 255
279 277 275 273 271 269 266 263 261 259 258 257 256 255 254 253 252 252 251 249 249 249 249 248 247 247 247 248 248 248 248 248 248 248 250 250 250 251 252 252 253 254 255
279 277 276 274 272 269 266 264 262 260 258 258 256 255 253 252 251 251 250 249 249 248 248 247 246 246 246 247 248 248 248 248 248 248 249 249 249 250 251 252 253 255 256
279 278 276 276 274 270 267 265 262 260 259 257 255 253 251 249 249 248 248 248 247 247 246 246 246 245 245 245 246 247 247 248 248 248 249 250 250 250 250 251 253 255 256
280 279 277 275 274 272 269 266 263 260 258 256 254 252 250 248 247 247 246 247 246 245 246 245 246 245 244 244 245 246 247 248 248 249 249 249 249 250 251 252 253 255 255
281 280 278 276 275 274 271 268 266 262 258 256 253 251 249 248 247 246 246 246 246 246 247 246 245 245 244 243 245 246 246 247 248 248 248 249 250 251 251 253 253 254 256
283 280 278 276 275 273 271 269 267 264 259 255 252 250 248 247 246 245 245 246 246 246 246 245 245 244 242 242 243 244 245 247 248 248 248 250 251 252 252 253 253 255 256
284 281 279 276 273 272 270 269 267 264 261 256 253 251 248 246 246 246 246 246 246 245 245 244 245 243 242 242 243 243 244 245 247 247 248 250 250 251 252 252 253 253 255
286 283 280 277 273 271 268 266 266 264 260 257 255 252 249 246 245 244 245 244 244 244 244 243 242 241 242 242 242 242 244 245 245 246 247 248 249 249 250 250 250 252 254
289 285 281 278 274 271 268 265 262 261 258 255 253 251 248 246 243 242 241 241 241 241 241 241 240 238 239 240 242 243 243 244 245 246 246 246 247 248 249 249 250 252 255
291 288 284 280 276 273 269 265 261 258 256 254 252 249 246 244 242 241 240 240 240 239 239 239 238 238 238 238 240 242 243 243 244 245 245 246 247 247 249 249 249 252 255
291 290 286 282 277 273 269 265 261 258 256 253 251 247 243 240 240 240 238 238 237 237 237 237 237 237 237 238 240 241 242 243 244 245 245 245 246 248 249 248 250 252 254
293 291 289 285 279 273 269 266 262 258 254 252 248 244 240 239 239 238 237 235 235 234 235 236 236 236 237 238 239 240 242 243 243 244 245 245 246 247 247 248 250 253 254
294 292 290 287 281 274 271 268 263 257 253 249 247 244 241 239 237 235 234 235 234 234 234 235 236 237 238 239 240 241 243 244 244 244 244 244 244 245 247 248 249 251 253
293 291 288 287 283 277 273 270 264 258 252 248 246 242 240 238 236 235 234 234 233 233 234 235 237 238 239 241 241 242 242 243 243 243 243 243 244 246 248 249 251 252 253
292 290 287 286 283 278 273 269 264 258 251 249 245 241 239 238 236 235 234 234 234 234 235 236 238 239 240 241 242 243 242 242 243 244 244 245 246 248 248 249 251 252 253
291 289 286 284 282 278 272 268 263 258 253 249 245 243 240 238 236 235 234 234 235 235 236 237 238 239 240 241 241 242 243 243 244 245 246 246 247 247 247 248 249 251 253
290 289 285 283 280 275 270 267 263 259 254 249 246 244 241 238 236 235 235 235 236 236 236 236 237 238 240 240 241 241 242 243 243 244 245 246 246 246 247 248 249 250 252
291 288 285 281 278 273 268 264 261 256 252 248 245 244 242 240 238 237 236 237 237 236 237 237 237 238 238 239 240 240 241 242 243 244 245 246 246 246 247 248 249 250 252
Height
5575 5575 5575 5577 5578 5579 5581 5582 5583 5586 5588 5590 5592 5594 5596 5599 5601 5604 5607 5610 5614 5617 5620 5624 5628 5631 5635 5639 5643 5646 5650 5653 5658 5663 5666 5670 5674 5677 5680 5683 5686 5689 5692
5560 5560 5561 5561 5562 5563 5565 5566 5568 5570 5572 5573 5576 5578 5580 5583 5585 5588 5592 5595 5598 5601 5605 5608 5612 5616 5620 5624 5628 5632 5636 5640 5644 5648 5652 5656 5660 5664 5667 5670 5673 5676 5679
5547 5546 5546 5546 5547 5548 5549 5551 5552 5554 5556 5558 5560 5562 5565 5567 5570 5573 5576 5579 5582 5586 5589 5593 5597 5601 5605 5609 5613 5617 5621 5626 5630 5634 5638 5642 5646 5650 5653 5657 5660 5663 5666
5533 5532 5532 5532 5532 5533 5534 5536 5537 5539 5540 5542 5544 5547 5549 5552 5555 5558 5561 5564 5568 5571 5575 5579 5583 5587 5591 5595 5599 5603 5607 5611 5615 5619 5624 5628 5632 5636 5639 5643 5646 5649 5653
5521 5519 5518 5518 5518 5519 5520 5521 5522 5523 5525 5527 5529 5532 5534 5537 5540 5543 5546 5550 5553 5557 5561 5565 5569 5573 5577 5581 5585 5589 5592 5596 5600 5605 5609 5614 5618 5621 5625 5629 5632 5636 5639
5509 5507 5505 5505 5505 5505 5505 5506 5507 5509 5511 5512 5514 5517 5519 5523 5526 5529 5532 5536 5540 5544 5548 5551 5555 5559 5563 5566 5570 5574 5578 5582 5586 5590 5595 5599 5604 5608 5611 5614 5618 5622 5626
5496 5494 5493 5492 5491 5491 5492 5493 5494 5495 5496 5498 5500 5503 5506 5509 5512 5515 5518 5522 5526 5530 5534 5537 5541 5545 5549 5552 5556 5559 5564 5568 5572 5576 5581 5585 5589 5594 5598 5601 5604 5607 5611
5484 5482 5480 5479 5478 5478 5478 5479 5480 5482 5483 5485 5487 5489 5493 5496 5498 5501 5504 5507 5511 5515 5520 5523 5527 5531 5535 5538 5542 5545 5549 5554 5558 5562 5567 5572 5575 5578 5582 5586 5589 5593 5596
5471 5469 5467 5466 5466 5465 5465 5466 5467 5469 5470 5472 5474 5476 5479 5482 5485 5488 5491 5494 5498 5502 5506 5509 5513 5517 5521 5525 5528 5532 5536 5540 5543 5547 5552 5556 5560 5564 5568 5571 5574 5578 5581
5460 5458 5456 5454 5454 5453 5453 5454 5454 5456 5457 5459 5461 5463 5466 5469 5472 5475 5478 5481 5485 5489 5493 5496 5500 5504 5507 5510 5514 5518 5522 5526 5530 5533 5537 5541 5545 5549 5553 5556 5560 5563 5567
5448 5446 5445 5443 5442 5442 5442 5442 5442 5443 5445 5447 5449 5451 5453 5456 5459 5462 5465 5469 5472 5476 5480 5483 5487 5490 5494 5498 5501 5505 5509 5513 5516 5520 5523 5527 5531 5535 5539 5543 5546 5550 5553
5438 5436 5434 5433 5432 5431 5431 5430 5431 5431 5433 5434 5436 5439 5441 5444 5447 5450 5453 5457 5460 5463 5467 5471 5474 5477 5481 5485 5489 5493 5496 5499 5503 5506 5510 5514 5518 5522 5526 5529 5533 5536 5539
5427 5425 5424 5422 5421 5420 5420 5420 5420 5420 5421 5423 5425 5427 5429 5432 5435 5438 5442 5445 5448 5451 5455 5458 5461 5464 5468 5473 5476 5480 5483 5487 5490 5494 5498 5502 5505 5509 5512 5516 5519 5522 5526
5417 5415 5414 5412 5411 5410 5410 5409 5409 5409 5410 5412 5414 5416 5418 5421 5424 5427 5430 5434 5437 5440 5443 5446 5449 5452 5456 5460 5464 5468 5471 5475 5479 5483 5486 5489 5493 5496 5500 5503 5506 5510 5513
5408 5406 5404 5403 5402 5401 5400 5399 5399 5400 5400 5401 5403 5405 5407 5410 5413 5416 5419 5422 5425 5428 5431 5435 5438 5441 5445 5448 5452 5456 5460 5464 5468 5471 5475 5478 5481 5484 5488 5491 5494 5497 5500
5399 5396 5394 5393 5392 5391 5390 5390 5389 5389 5390 5391 5392 5394 5396 5399 5402 5405 5408 5411 5414 5417 5420 5423 5427 5430 5434 5438 5442 5446 5450 5453 5457 5460 5463 5467 5470 5473 5477 5480 5482 5485 5488
5389 5387 5384 5383 5382 5380 5380 5379 5380 5380 5380 5381 5382 5384 5386 5389 5391 5394 5398 5401 5404 5407 5410 5413 5417 5421 5424 5428 5432 5435 5439 5443 5446 5449 5453 5456 5459 5462 5465 5468 5471 5474 5476
5380 5377 5375 5373 5371 5370 5369 5369 5369 5370 5371 5371 5373 5374 5376 5379 5382 5385 5388 5391 5394 5397 5400 5404 5407 5411 5415 5419 5422 5426 5429 5432 5436 5439 5442 5445 5448 5451 5454 5457 5460 5463 5465
5372 5369 5366 5364 5362 5361 5360 5359 5359 5359 5360 5362 5363 5365 5367 5369 5372 5375 5378 5381 5385 5389 5392 5395 5399 5402 5406 5409 5413 5416 5419 5422 5425 5429 5432 5435 5438 5441 5444 5446 5449 5452 5453
5363 5360 5358 5355 5353 5352 5351 5350 5350 5350 5351 5352 5354 5356 5358 5360 5364 5367 5370 5373 5377 5380 5384 5387 5391 5394 5397 5401 5404 5407 5410 5413 5416 5418 5421 5424 5427 5430 5433 5436 5438 5441 5443
5355 5353 5350 5348 5346 5344 5343 5342 5342 5342 5343 5344 5345 5347 5349 5352 5355 5358 5362 5365 5369 5372 5376 5379 5383 5386 5389 5392 5395 5398 5401 5404 5406 5409 5412 5415 5417 5420 5423 5426 5428 5430 5432
5347 5345 5343 5341 5339 5337 5336 5335 5334 5335 5335 5337 5338 5340 5342 5344 5347 5351 5354 5357 5360 5364 5368 5371 5375 5378 5381 5384 5387 5390 5392 5395 5398 5400 5403 5405 5408 5411 5413 5416 5418 5420 5422
5340 5337 5335 5333 5331 5330 5329 5328 5328 5328 5329 5330 5332 5333 5335 5338 5340 5343 5347 5350 5353 5356 5360 5363 5367 5370 5373 5375 5378 5381 5384 5387 5389 5391 5394 5396 5399 5401 5404 5406 5408 5410 5412
5332 5330 5328 5326 5324 5323 5322 5322 5322 5322 5323 5324 5326 5328 5329 5332 5334 5337 5340 5343 5346 5349 5352 5355 5358 5361 5364 5367 5369 5372 5375 5377 5380 5382 5385 5387 5390 5392 5394 5396 5398 5400 5402
5325 5322 5320 5319 5317 5317 5316 5316 5316 5317 5317 5319 5320 5322 5323 5326 5328 5330 5333 5336 5338 5341 5344 5347 5350 5353 5356 5358 5361 5364 5366 5369 5371 5374 5376 5378 5381 5383 5385 5387 5389 5390 5392
5317 5315 5313 5312 5311 5310 5310 5310 5310 5311 5312 5313 5314 5316 5317 5319 5322 5324 5326 5329 5331 5334 5336 5339 5342 5345 5347 5350 5353 5355 5358 5360 5363 5365 5367 5369 5372 5374 5376 5377 5379 5381 5383